GW3806 Weather Reports


Display with metric or nautical units.
time (UTC)temp
F
wind
direction
speed
MPH
gust
MPH
rain 1hr
in
rain 24hr
in
rain mn
in
humidity
%
barometer
mb
20260906022726 58 82 2.0 6.0 0.00 0.00 0.00 66 1018.4
20260906022221 58 67 2.0 5.0 0.00 0.00 0.00 66 1018.4
20260906021717 58 90 3.0 5.0 0.00 0.00 0.00 66 1018.5
20260906021215 58 353 0.0 1.0 0.00 0.00 0.00 65 1018.5
20260906020711 59 0 1.0 2.0 0.00 0.00 0.00 66 1018.5
20260906020205 58 90 0.0 2.0 0.00 0.00 0.00 67 1018.3
20260906015700 60 90 3.0 4.0 0.00 0.00 0.00 66 1018.4
20260906015158 62 0 0.0 0.0 0.00 0.00 0.00 59 1018.4
20260906014652 64 349 2.0 2.0 0.00 0.00 0.00 56 1018.2
20260906014148 65 90 0.0 0.0 0.00 0.00 0.00 56 1018.4
20260906013644 66 98 0.0 3.0 0.00 0.00 0.00 53 1018.5
20260906013139 67 246 0.0 2.0 0.00 0.00 0.00 49 1018.7
20260906012639 68 278 0.0 1.0 0.00 0.00 0.00 47 1018.4
20260906012134 70 270 2.0 3.0 0.00 0.00 0.00 46 1018.5
20260906011630 71 253 0.0 2.0 0.00 0.00 0.00 45 1018.5
20260906011124 73 301 2.0 4.0 0.00 0.00 0.00 43 1018.5
20260906010619 73 246 0.0 2.0 0.00 0.00 0.00 43 1018.4
20260906010116 73 303 3.0 4.0 0.00 0.00 0.00 43 1018.4
20260906005609 73 276 2.0 4.0 0.00 0.00 0.00 43 1018.4
20260906005109 73 270 0.0 5.0 0.00 0.00 0.00 43 1018.3
20260906004608 74 250 2.0 3.0 0.00 0.00 0.00 41 1018.3
20260906004103 74 264 0.0 3.0 0.00 0.00 0.00 41 1018.3
20260906003558 74 327 2.0 6.0 0.00 0.00 0.00 42 1018.4
20260906003054 74 255 0.0 6.0 0.00 0.00 0.00 42 1018.2
20260906002549 75 342 0.0 6.0 0.00 0.00 0.00 42 1018.2
20260906002043 75 270 2.0 5.0 0.00 0.00 0.00 40 1018.3
20260906001538 75 0 2.0 4.0 0.00 0.00 0.00 41 1017.9
20260906001032 75 275 2.0 5.0 0.00 0.00 0.00 40 1018.1
20260906000529 75 268 4.0 7.0 0.00 0.00 0.00 39 1018.2
20260906000024 75 276 1.0 8.0 0.00 0.00 0.00 41 1018.1
20260905235517 76 240 3.0 5.0 0.00 0.00 0.00 41 1018.2
20260905235013 76 336 2.0 8.0 0.00 0.00 0.00 42 1018.2
20260905234509 75 258 2.0 9.0 0.00 0.00 0.00 38 1017.9
20260905234003 77 263 4.0 5.0 0.00 0.00 0.00 39 1017.9
20260905233458 77 270 1.0 4.0 0.00 0.00 0.00 38 1018.1
20260905232956 76 351 2.0 6.0 0.00 0.00 0.00 41 1017.9
20260905232453 76 8 4.0 6.0 0.00 0.00 0.00 39 1017.9
20260905231948 76 284 3.0 7.0 0.00 0.00 0.00 41 1018.1
20260905231443 75 262 5.0 5.0 0.00 0.00 0.00 42 1018.1
20260905230935 76 4 4.0 9.0 0.00 0.00 0.00 41 1017.8
20260905230432 75 322 2.0 6.0 0.00 0.00 0.00 43 1017.9
20260905225931 75 319 0.0 5.0 0.00 0.00 0.00 41 1017.8
20260905225426 79 270 0.0 8.0 0.00 0.00 0.00 37 1017.9
20260905224921 78 239 4.0 7.0 0.00 0.00 0.00 36 1017.7
20260905224417 76 232 3.0 9.0 0.00 0.00 0.00 37 1018.1
20260905223911 78 296 7.0 11.0 0.00 0.00 0.00 37 1017.7
20260905223409 77 342 2.0 4.0 0.00 0.00 0.00 36 1017.7
20260905222908 78 289 3.0 6.0 0.00 0.00 0.00 37 1017.8
20260905222408 77 280 0.0 8.0 0.00 0.00 0.00 37 1017.8
20260905221904 79 226 4.0 10.0 0.00 0.00 0.00 36 1017.8
20260905221400 79 214 5.0 11.0 0.00 0.00 0.00 31 1017.9
20260905220856 78 301 2.0 11.0 0.00 0.00 0.00 32 1017.9
20260905220352 78 263 3.0 6.0 0.00 0.00 0.00 31 1017.9
20260905215851 78 205 9.0 9.0 0.00 0.00 0.00 31 1018.1
20260905215347 77 196 4.0 12.0 0.00 0.00 0.00 33 1018.2
20260905214843 76 243 5.0 14.0 0.00 0.00 0.00 31 1018.2
20260905214338 78 215 8.0 13.0 0.00 0.00 0.00 33 1018.3
20260905213833 78 217 3.0 17.0 0.00 0.00 0.00 32 1018.3
20260905213329 79 199 10.0 11.0 0.00 0.00 0.00 33 1018.1
20260905212819 77 220 5.0 12.0 0.00 0.00 0.00 33 1017.9
20260905212318 79 275 7.0 11.0 0.00 0.00 0.00 34 1018.1
20260905211813 77 141 5.0 12.0 0.00 0.00 0.00 33 1018.1
20260905211307 78 188 3.0 15.0 0.00 0.00 0.00 36 1018.3
20260905210804 76 268 6.0 12.0 0.00 0.00 0.00 34 1018.3
20260905210304 77 209 5.0 17.0 0.00 0.00 0.00 33 1018.2
20260905205802 77 245 8.0 13.0 0.00 0.00 0.00 33 1018.4
20260905205257 77 211 3.0 12.0 0.00 0.00 0.00 33 1018.4
20260905204756 77 200 4.0 11.0 0.00 0.00 0.00 34 1018.4
20260905204253 78 236 6.0 8.0 0.00 0.00 0.00 34 1018.5
20260905203752 78 233 4.0 6.0 0.00 0.00 0.00 34 1018.4
20260905203247 77 212 7.0 11.0 0.00 0.00 0.00 34 1018.4
20260905202743 78 159 3.0 10.0 0.00 0.00 0.00 34 1018.5
20260905202238 77 163 5.0 11.0 0.00 0.00 0.00 34 1018.5
20260905201733 76 249 8.0 13.0 0.00 0.00 0.00 34 1018.7
20260905201228 78 187 4.0 12.0 0.00 0.00 0.00 36 1018.5
20260905200723 77 213 5.0 9.0 0.00 0.00 0.00 35 1018.7
20260905200219 76 221 6.0 14.0 0.00 0.00 0.00 36 1018.8
20260905195717 76 219 5.0 9.0 0.00 0.00 0.00 36 1018.8
20260905195213 76 236 4.0 10.0 0.00 0.00 0.00 36 1018.5
20260905194708 75 225 7.0 17.0 0.00 0.00 0.00 37 1018.8
20260905194207 76 258 3.0 9.0 0.00 0.00 0.00 36 1018.8
20260905193701 75 203 9.0 14.0 0.00 0.00 0.00 36 1018.8
20260905193156 75 236 12.0 12.0 0.00 0.00 0.00 36 1018.8
20260905192652 74 249 6.0 9.0 0.00 0.00 0.00 36 1018.8
20260905192149 75 180 4.0 12.0 0.00 0.00 0.00 36 1018.8
20260905191648 75 206 7.0 16.0 0.00 0.00 0.00 36 1018.8
20260905191146 75 193 3.0 9.0 0.00 0.00 0.00 38 1018.9
20260905190644 73 213 5.0 11.0 0.00 0.00 0.00 38 1018.8
20260905190138 74 156 18.0 18.0 0.00 0.00 0.00 37 1018.9
20260905185638 74 207 13.0 20.0 0.00 0.00 0.00 36 1019.0
20260905185138 73 203 17.0 21.0 0.00 0.00 0.00 38 1019.0
20260905184632 74 218 7.0 11.0 0.00 0.00 0.00 38 1019.0
20260905184131 71 201 6.0 13.0 0.00 0.00 0.00 41 1019.1
20260905183630 73 196 5.0 15.0 0.00 0.00 0.00 40 1019.0
20260905183126 73 216 5.0 14.0 0.00 0.00 0.00 40 1019.1
20260905182620 73 303 2.0 6.0 0.00 0.00 0.00 44 1019.3
20260905182119 73 253 2.0 5.0 0.00 0.00 0.00 44 1019.4
20260905181614 73 156 0.0 5.0 0.00 0.00 0.00 43 1019.4
20260905181113 71 199 0.0 6.0 0.00 0.00 0.00 45 1019.3
20260905180609 70 273 3.0 5.0 0.00 0.00 0.00 51 1019.4
20260905180104 71 234 1.0 5.0 0.00 0.00 0.00 50 1019.5
20260905175603 71 200 3.0 4.0 0.00 0.00 0.00 51 1019.5
20260905175058 70 90 0.0 3.0 0.00 0.00 0.00 52 1019.5
20260905174554 70 334 1.0 3.0 0.00 0.00 0.00 53 1019.6
20260905174049 69 319 0.0 3.0 0.00 0.00 0.00 54 1019.5
20260905173546 71 273 3.0 5.0 0.00 0.00 0.00 55 1019.4
20260905173041 72 105 4.0 4.0 0.00 0.00 0.00 50 1019.6
20260905172539 71 162 2.0 3.0 0.00 0.00 0.00 51 1019.4
20260905172035 70 228 5.0 5.0 0.00 0.00 0.00 50 1019.5
20260905171531 69 170 3.0 4.0 0.00 0.00 0.00 51 1019.5
20260905171027 68 180 2.0 5.0 0.00 0.00 0.00 52 1019.5
20260905170523 69 227 3.0 5.0 0.00 0.00 0.00 55 1019.3
20260905170018 66 246 3.0 3.0 0.00 0.00 0.00 57 1019.4
20260905165513 66 238 3.0 5.0 0.00 0.00 0.00 59 1019.5
20260905165008 67 161 6.0 6.0 0.00 0.00 0.00 58 1019.5
20260905164502 65 185 0.0 6.0 0.00 0.00 0.00 60 1019.4
20260905163956 64 270 1.0 4.0 0.00 0.00 0.00 61 1019.4
20260905163453 65 277 3.0 5.0 0.00 0.00 0.00 60 1019.3
20260905162949 65 206 2.0 4.0 0.00 0.00 0.00 60 1019.3
20260905162444 65 225 2.0 3.0 0.00 0.00 0.00 60 1019.3
20260905161939 64 217 3.0 5.0 0.00 0.00 0.00 63 1019.1
20260905161438 64 237 2.0 3.0 0.00 0.00 0.00 61 1019.1
20260905160936 63 135 5.0 5.0 0.00 0.00 0.00 64 1019.1
20260905160430 63 177 2.0 4.0 0.00 0.00 0.00 64 1019.0
20260905155930 62 195 1.0 4.0 0.00 0.00 0.00 66 1019.0
20260905155425 60 353 0.0 3.0 0.00 0.00 0.00 66 1019.1
20260905154923 61 150 2.0 3.0 0.00 0.00 0.00 67 1019.0
20260905154419 59 173 0.0 3.0 0.00 0.00 0.00 66 1019.1
20260905153915 59 172 0.0 4.0 0.00 0.00 0.00 70 1019.1
20260905153411 58 162 1.0 3.0 0.00 0.00 0.00 70 1019.3
20260905152910 58 352 0.0 3.0 0.00 0.00 0.00 72 1019.3
20260905152409 57 206 2.0 4.0 0.00 0.00 0.00 72 1019.3
20260905151905 56 237 2.0 3.0 0.00 0.00 0.00 74 1019.4
20260905151400 55 206 1.0 3.0 0.00 0.00 0.00 75 1019.3
20260905150854 55 121 4.0 4.0 0.00 0.00 0.00 74 1019.4
20260905150349 56 145 1.0 3.0 0.00 0.00 0.00 74 1019.3
20260905145846 55 128 2.0 3.0 0.00 0.00 0.00 76 1019.1
20260905145340 53 121 2.0 5.0 0.00 0.00 0.00 75 1019.4
20260905144839 53 220 3.0 4.0 0.00 0.00 0.00 77 1019.4
20260905144335 52 156 2.0 6.0 0.00 0.00 0.00 79 1019.4
20260905143833 51 177 3.0 6.0 0.00 0.00 0.00 81 1019.1
20260905143328 50 164 4.0 7.0 0.00 0.00 0.00 83 1019.1
20260905142828 50 159 5.0 7.0 0.00 0.00 0.00 83 1019.1
20260905142321 49 141 5.0 7.0 0.00 0.00 0.00 83 1019.1
20260905141817 49 164 3.0 5.0 0.00 0.00 0.00 83 1018.9
20260905141313 50 152 5.0 6.0 0.00 0.00 0.00 83 1018.9
20260905140808 49 138 3.0 5.0 0.00 0.00 0.00 84 1019.0
20260905140302 48 157 1.0 4.0 0.00 0.00 0.00 87 1018.9
20260905135801 47 135 3.0 5.0 0.00 0.00 0.00 89 1018.8
20260905135258 45 124 5.0 5.0 0.00 0.00 0.00 92 1018.9
20260905134757 44 124 2.0 6.0 0.00 0.00 0.00 94 1018.9
20260905134250 43 149 2.0 5.0 0.00 0.00 0.00 95 1018.9
20260905133745 43 148 5.0 7.0 0.00 0.00 0.00 94 1018.8
20260905133241 42 157 3.0 4.0 0.00 0.00 0.00 94 1018.9
20260905132740 42 237 1.0 5.0 0.00 0.00 0.00 93 1018.4
20260905132236 42 152 0.0 4.0 0.00 0.00 0.00 91 1018.4
20260905131730 42 201 2.0 5.0 0.00 0.00 0.00 90 1018.2
20260905131225 43 139 4.0 6.0 0.00 0.00 0.00 88 1018.3
20260905130720 43 168 3.0 5.0 0.00 0.00 0.00 87 1018.1
20260905130219 44 144 4.0 5.0 0.00 0.00 0.00 85 1017.9
20260905125715 45 133 3.0 6.0 0.00 0.00 0.00 83 1017.8
20260905125210 46 135 5.0 5.0 0.00 0.00 0.00 81 1017.9
20260905124706 48 127 4.0 6.0 0.00 0.00 0.00 77 1017.8
20260905124202 49 94 3.0 4.0 0.00 0.00 0.00 75 1017.6
20260905123656 48 65 2.0 2.0 0.00 0.00 0.00 76 1017.4
20260905123154 48 123 3.0 5.0 0.00 0.00 0.00 76 1017.4
20260905122653 51 98 2.0 4.0 0.00 0.00 0.00 72 1017.3
20260905122148 51 103 1.0 2.0 0.00 0.00 0.00 70 1017.2
20260905121648 51 75 1.0 4.0 0.00 0.00 0.00 68 1017.2
20260905121143 52 90 0.0 2.0 0.00 0.00 0.00 67 1017.1
20260905120643 52 96 1.0 4.0 0.00 0.00 0.00 68 1017.3
20260905120137 52 81 2.0 3.0 0.00 0.00 0.00 67 1017.0
20260905115632 53 94 2.0 3.0 0.00 0.00 0.00 64 1017.2
20260905115127 55 116 3.0 4.0 0.00 0.00 0.00 60 1017.1
20260905114626 55 23 0.0 2.0 0.00 0.00 0.00 58 1017.1
20260905114125 57 145 0.0 1.0 0.00 0.00 0.00 57 1017.1
20260905113620 59 16 2.0 2.0 0.00 0.00 0.00 54 1017.0
20260905113115 60 262 0.0 2.0 0.00 0.00 0.00 51 1017.0
20260905112609 60 254 0.0 2.0 0.00 0.00 0.00 50 1017.0
20260905112106 61 180 0.0 2.0 0.00 0.00 0.00 50 1017.2
20260905111600 61 206 2.0 3.0 0.00 0.00 0.00 49 1017.0
20260905111059 64 254 2.0 7.0 0.00 0.00 0.00 47 1017.0
20260905110558 65 151 3.0 6.0 0.00 0.00 0.00 45 1016.7
20260905110054 64 154 4.0 10.0 0.00 0.00 0.00 45 1016.7
20260905105554 63 138 3.0 6.0 0.00 0.00 0.00 46 1016.7
20260905105053 63 144 3.0 5.0 0.00 0.00 0.00 47 1016.5
20260905104549 63 135 3.0 5.0 0.00 0.00 0.00 46 1016.6
20260905104048 64 165 0.0 4.0 0.00 0.00 0.00 46 1016.5
20260905103544 64 126 1.0 3.0 0.00 0.00 0.00 46 1016.5
20260905103040 64 143 8.0 11.0 0.00 0.00 0.00 45 1016.6
20260905102530 63 157 0.0 1.0 0.00 0.00 0.00 47 1016.5
20260905102027 64 117 0.0 3.0 0.00 0.00 0.00 46 1016.6
20260905101525 64 205 3.0 12.0 0.00 0.00 0.00 45 1016.5
20260905101023 64 154 0.0 4.0 0.00 0.00 0.00 46 1016.5
20260905100520 64 160 1.0 5.0 0.00 0.00 0.00 45 1016.4
20260905100020 65 84 3.0 9.0 0.00 0.00 0.00 45 1016.5
20260905095514 63 254 0.0 2.0 0.00 0.00 0.00 47 1016.5
20260905095010 64 139 2.0 5.0 0.00 0.00 0.00 46 1016.2
20260905094504 63 146 3.0 5.0 0.00 0.00 0.00 46 1016.0
20260905094004 62 101 2.0 3.0 0.00 0.00 0.00 49 1016.4
20260905093458 62 108 4.0 7.0 0.00 0.00 0.00 48 1016.0
20260905092955 59 36 2.0 4.0 0.00 0.00 0.00 54 1016.1
20260905092449 59 102 2.0 2.0 0.00 0.00 0.00 53 1016.2
20260905091945 59 95 2.0 3.0 0.00 0.00 0.00 54 1016.1
20260905091439 58 187 0.0 0.0 0.00 0.00 0.00 54 1016.0
20260905090939 57 60 2.0 2.0 0.00 0.00 0.00 56 1016.0
20260905090434 59 8 3.0 3.0 0.00 0.00 0.00 54 1016.0
20260905085933 60 352 0.0 2.0 0.00 0.00 0.00 51 1016.0
20260905085432 60 90 0.0 2.0 0.00 0.00 0.00 52 1016.1
20260905084928 60 48 0.0 3.0 0.00 0.00 0.00 51 1015.7
20260905084428 59 102 4.0 4.0 0.00 0.00 0.00 55 1016.0
20260905083922 60 286 0.0 1.0 0.00 0.00 0.00 53 1016.0
20260905083418 60 82 0.0 3.0 0.00 0.00 0.00 53 1015.7
20260905082914 62 344 2.0 2.0 0.00 0.00 0.00 49 1015.9
20260905082409 62 81 3.0 3.0 0.00 0.00 0.00 49 1015.7
20260905081904 63 315 0.0 4.0 0.00 0.00 0.00 48 1015.9
20260905081359 66 212 3.0 6.0 0.00 0.00 0.00 44 1015.7
20260905080858 67 162 1.0 4.0 0.00 0.00 0.00 42 1015.6
20260905080353 68 151 3.0 9.0 0.00 0.00 0.00 42 1015.6
20260905075852 67 117 4.0 10.0 0.00 0.00 0.00 43 1015.6
20260905075351 66 149 0.0 9.0 0.00 0.00 0.00 44 1015.6
20260905074850 59 105 1.0 9.0 0.00 0.00 0.00 54 1015.5
20260905074347 54 82 0.0 5.0 0.00 0.00 0.00 63 1015.7
20260905073842 53 87 3.0 5.0 0.00 0.00 0.00 68 1015.6
20260905073337 52 103 1.0 2.0 0.00 0.00 0.00 67 1015.5
20260905072831 54 32 0.0 3.0 0.00 0.00 0.00 64 1015.5
20260905072321 53 96 1.0 2.0 0.00 0.00 0.00 68 1015.9
20260905071817 54 139 2.0 2.0 0.00 0.00 0.00 65 1015.6
20260905071314 51 79 2.0 5.0 0.00 0.00 0.00 71 1015.5
20260905070808 51 100 3.0 6.0 0.00 0.00 0.00 70 1015.5
20260905070305 51 146 2.0 3.0 0.00 0.00 0.00 70 1015.5
20260905065803 53 74 1.0 2.0 0.00 0.00 0.00 63 1015.3
20260905065306 51 95 4.0 7.0 0.00 0.00 0.00 68 1015.3
20260905064757 51 195 0.0 5.0 0.00 0.00 0.00 70 1015.3
20260905064253 52 90 0.0 3.0 0.00 0.00 0.00 66 1015.1
20260905063751 52 151 0.0 2.0 0.00 0.00 0.00 67 1015.1
20260905063248 52 31 3.0 4.0 0.00 0.00 0.00 66 1015.1
20260905062744 51 99 0.0 2.0 0.00 0.00 0.00 68 1015.1
20260905062243 51 81 0.0 4.0 0.00 0.00 0.00 68 1015.3
20260905061738 51 90 3.0 4.0 0.00 0.00 0.00 71 1015.4
20260905061232 50 96 0.0 3.0 0.00 0.00 0.00 73 1015.4
20260905060726 50 115 2.0 2.0 0.00 0.00 0.00 71 1015.4
20260905060223 50 71 1.0 4.0 0.00 0.00 0.00 74 1015.4
20260905055716 50 53 2.0 3.0 0.00 0.00 0.00 74 1015.4
20260905055212 49 202 2.0 3.0 0.00 0.00 0.00 75 1015.5
20260905054706 49 87 3.0 3.0 0.00 0.00 0.00 74 1015.6
20260905054203 50 114 3.0 3.0 0.00 0.00 0.00 74 1015.5
20260905053702 49 96 2.0 3.0 0.00 0.00 0.00 74 1015.3
20260905053156 51 60 1.0 4.0 0.00 0.00 0.00 71 1015.4
20260905052651 52 84 2.0 2.0 0.00 0.00 0.00 67 1015.5
20260905052145 53 45 2.0 2.0 0.00 0.00 0.00 66 1015.4
20260905051641 52 90 2.0 3.0 0.00 0.00 0.00 66 1015.9
20260905051137 52 101 3.0 4.0 0.00 0.00 0.00 66 1015.5
20260905050633 53 188 2.0 5.0 0.00 0.00 0.00 65 1015.6
20260905050125 53 135 3.0 5.0 0.00 0.00 0.00 63 1015.6
20260905045624 54 135 4.0 7.0 0.00 0.00 0.00 63 1015.5
20260905045119 54 106 3.0 6.0 0.00 0.00 0.00 64 1015.6
20260905044614 54 8 3.0 4.0 0.00 0.00 0.00 65 1015.7
20260905044114 54 77 1.0 5.0 0.00 0.00 0.00 65 1015.9
20260905043612 53 99 6.0 8.0 0.00 0.00 0.00 67 1015.9
20260905043108 53 84 5.0 8.0 0.00 0.00 0.00 68 1015.9
20260905042606 53 98 3.0 11.0 0.00 0.00 0.00 68 1016.2
20260905042057 53 337 1.0 6.0 0.00 0.00 0.00 69 1016.2
20260905041552 53 52 2.0 9.0 0.00 0.00 0.00 71 1016.2
20260905041048 53 278 1.0 8.0 0.00 0.00 0.00 71 1016.5
20260905040547 53 84 6.0 7.0 0.00 0.00 0.00 72 1016.5
20260905040045 53 86 4.0 11.0 0.00 0.00 0.00 72 1016.5
20260905035540 53 94 3.0 6.0 0.00 0.00 0.00 72 1016.5
20260905035032 53 92 5.0 8.0 0.00 0.00 0.00 72 1016.5
20260905034527 53 93 6.0 9.0 0.00 0.00 0.00 73 1016.7
20260905034027 53 103 6.0 7.0 0.00 0.00 0.00 74 1016.5
20260905033521 53 93 3.0 7.0 0.00 0.00 0.00 73 1016.6
20260905033017 53 83 3.0 4.0 0.00 0.00 0.00 74 1016.7
20260905032512 53 104 6.0 10.0 0.00 0.00 0.00 73 1016.6
20260905032007 53 84 5.0 10.0 0.00 0.00 0.00 74 1016.7
20260905031502 54 109 0.0 4.0 0.00 0.00 0.00 74 1016.5
20260905030956 54 81 2.0 4.0 0.00 0.00 0.00 72 1016.5
20260905030452 55 94 5.0 7.0 0.00 0.00 0.00 71 1016.7
20260905025950 55 28 2.0 3.0 0.00 0.00 0.00 72 1016.6
20260905025447 54 86 3.0 7.0 0.00 0.00 0.00 73 1016.7
20260905024943 54 102 3.0 4.0 0.00 0.00 0.00 73 1016.6
20260905024444 55 105 4.0 4.0 0.00 0.00 0.00 71 1016.6
20260905023939 55 5 2.0 4.0 0.00 0.00 0.00 71 1016.6
20260905023434 54 25 3.0 3.0 0.00 0.00 0.00 73 1016.6